GW5299 Weather Reports


time (UTC)temp
F
wind
direction
speed
knots
gust
knots
rain 1hr
in
rain 24hr
in
rain mn
in
humidity
%
barometer
mb
20260507140006 60 82 0.9 3.5 0.00 0.00 0.00 51 661.6
20260507135058 60 118 0.9 1.7 0.00 0.00 0.00 50 661.4
20260507134052 59 352 0.0 2.6 0.00 0.00 0.00 51 661.1
20260507133044 59 23 1.7 2.6 0.00 0.00 0.00 52 661.1
20260507132037 59 7 0.9 3.5 0.00 0.00 0.00 52 661.1
20260507131029 59 11 0.0 2.6 0.00 0.00 0.00 52 661.2
20260507130010 59 20 0.0 1.7 0.00 0.00 0.00 51 661.0
20260507125003 59 45 0.9 1.7 0.00 0.00 0.00 53 661.1
20260507124056 59 46 0.0 2.6 0.00 0.00 0.00 54 661.1
20260507123049 59 150 0.0 2.6 0.00 0.00 0.00 55 660.9
20260507122042 58 164 0.9 2.6 0.00 0.00 0.00 55 660.8
20260507121035 59 111 1.7 1.7 0.00 0.00 0.00 56 660.9
20260507120024 59 102 0.9 1.7 0.00 0.00 0.00 55 661.0
20260507115011 58 108 0.9 2.6 0.00 0.00 0.00 56 660.8
20260507114004 58 64 0.9 3.5 0.00 0.00 0.00 55 660.6
20260507113058 58 90 2.6 3.5 0.00 0.00 0.00 56 660.5
20260507112050 58 36 0.0 2.6 0.00 0.00 0.00 54 660.4
20260507111044 58 351 0.0 3.5 0.00 0.00 0.00 55 660.2
20260507110036 59 22 2.6 3.5 0.00 0.00 0.00 55 660.9
20260507105029 59 65 0.9 6.1 0.00 0.00 0.00 54 661.4
20260507104012 60 64 0.0 7.8 0.00 0.00 0.00 52 661.7
20260507103003 59 26 2.6 5.2 0.00 0.00 0.00 54 661.1
20260507102056 59 8 0.9 7.8 0.00 0.00 0.00 57 660.9
20260507101049 60 24 3.5 3.5 0.00 0.00 0.00 56 661.9
20260507100041 59 1 0.9 7.8 0.00 0.00 0.00 58 660.9
20260507095034 60 31 0.0 5.2 0.00 0.00 0.00 57 661.5
20260507094023 59 9 1.7 6.1 0.00 0.00 0.00 59 661.4
20260507093008 60 19 0.9 7.0 0.00 0.00 0.00 57 661.7
20260507092101 59 355 0.9 6.1 0.00 0.00 0.00 59 661.3
20260507091054 60 349 4.3 6.1 0.00 0.00 0.00 62 661.4
20260507090047 61 2 4.3 5.2 0.00 0.00 0.00 60 662.3
20260507085040 59 9 1.7 6.1 0.00 0.00 0.00 62 661.4
20260507084033 58 17 2.6 5.2 0.00 0.00 0.00 63 660.7
20260507083026 58 10 3.5 7.0 0.00 0.00 0.00 62 660.4
20260507082015 59 37 3.5 3.5 0.00 0.00 0.00 65 660.8
20260507081005 55 26 0.9 5.2 0.00 0.00 0.00 66 658.7
20260507080059 54 331 2.6 3.5 0.00 0.00 0.00 65 658.2
20260507075052 53 341 2.6 5.2 0.00 0.00 0.00 67 657.4
20260507074045 52 5 2.6 5.2 0.00 0.00 0.00 70 657.3
20260507073038 51 349 1.7 5.2 0.00 0.00 0.00 73 656.6
20260507072031 51 352 0.0 6.1 0.00 0.00 0.00 74 656.2
20260507071022 50 352 3.5 5.2 0.00 0.00 0.00 74 656.0
20260507070010 50 9 1.7 3.5 0.00 0.00 0.00 77 656.1
20260507065059 50 353 0.9 3.5 0.00 0.00 0.00 77 655.9
20260507064047 50 340 1.7 2.6 0.00 0.00 0.00 78 655.8
20260507063040 50 354 2.6 3.5 0.00 0.00 0.00 79 655.8
20260507062033 49 346 1.7 3.5 0.00 0.00 0.00 81 655.5
20260507061026 49 3 0.0 1.7 0.00 0.00 0.00 84 655.3
20260507060011 49 355 0.9 2.6 0.00 0.00 0.00 87 655.0
20260507055004 48 348 0.0 0.9 0.00 0.00 0.00 90 654.9
20260507054058 48 348 0.9 0.9 0.00 0.00 0.00 91 654.8
20260507053050 48 350 0.0 0.9 0.00 0.00 0.00 91 654.5
20260507052044 47 350 0.0 0.0 0.00 0.00 0.00 91 654.4
20260507051036 47 350 0.0 0.0 0.00 0.00 0.00 91 654.2
20260507050029 47 350 0.0 0.0 0.00 0.00 0.00 91 654.1
20260507045012 47 350 0.0 0.0 0.00 0.00 0.00 91 654.3
20260507044004 47 350 0.0 0.0 0.00 0.00 0.00 91 654.2
20260507043055 47 350 0.0 0.0 0.00 0.00 0.00 91 654.3
20260507042048 47 350 0.0 0.0 0.00 0.00 0.00 91 654.3
20260507041042 47 350 0.0 0.0 0.00 0.00 0.00 91 654.3
20260507040035 47 350 0.0 0.0 0.00 0.00 0.00 90 654.3
20260507035027 47 350 0.0 0.0 0.00 0.00 0.00 90 654.4
20260507034011 48 350 0.0 0.0 0.00 0.00 0.00 90 654.4
20260507033004 48 350 0.0 0.0 0.00 0.00 0.00 90 654.4
20260507032057 48 350 0.0 0.0 0.00 0.00 0.00 90 654.4
20260507031051 48 350 0.0 0.0 0.00 0.00 0.00 89 654.6
20260507030043 48 350 0.0 0.0 0.00 0.00 0.00 89 654.5
20260507025035 48 350 0.0 0.0 0.00 0.00 0.00 89 654.5
20260507024028 48 350 0.0 0.0 0.00 0.00 0.00 89 654.6
20260507023009 48 350 0.0 0.0 0.00 0.00 0.00 89 654.6
20260507022002 48 350 0.0 0.0 0.00 0.00 0.00 88 654.6
20260507021055 48 350 0.0 0.0 0.00 0.00 0.00 88 654.5
20260507020048 48 350 0.0 0.0 0.00 0.00 0.00 88 654.5
20260507015041 48 350 0.0 0.0 0.00 0.00 0.00 88 654.6
20260507014020 48 350 0.0 0.0 0.00 0.00 0.00 88 654.5
20260507013007 48 350 0.0 0.0 0.00 0.00 0.00 87 654.7
20260507012101 48 350 0.0 0.0 0.00 0.00 0.00 87 654.8
20260507011054 48 350 0.0 0.0 0.00 0.00 0.00 87 654.8
20260507010046 48 350 0.0 0.0 0.00 0.00 0.00 87 654.9
20260507005039 48 350 0.0 0.0 0.00 0.00 0.00 86 655.0
20260507004032 48 350 0.0 0.0 0.00 0.00 0.00 86 654.9
20260507003025 49 350 0.0 0.0 0.00 0.00 0.00 86 655.0
20260507002010 48 350 0.0 0.0 0.00 0.00 0.00 85 655.0
20260507001003 48 350 0.0 0.0 0.00 0.00 0.00 85 654.9
20260507000057 48 350 0.0 0.0 0.00 0.00 0.00 84 654.9
20260506235050 48 350 0.0 0.0 0.00 0.00 0.00 83 654.8
20260506234042 48 350 0.0 0.0 0.00 0.00 0.00 81 654.9
20260506233035 48 350 0.0 0.9 0.00 0.00 0.00 81 654.9
20260506232027 48 350 0.0 0.9 0.00 0.00 0.00 82 654.9
20260506231012 48 350 0.0 0.0 0.00 0.00 0.00 82 654.9
20260506230005 48 350 0.0 0.9 0.00 0.00 0.00 81 654.9
20260506225059 49 352 0.0 0.0 0.00 0.00 0.00 80 655.0
20260506224051 49 350 0.0 0.9 0.00 0.00 0.00 78 655.1
20260506223044 49 349 0.9 0.9 0.00 0.00 0.00 77 655.1
20260506222037 49 337 0.0 0.9 0.00 0.00 0.00 77 655.1
20260506221030 49 347 0.9 0.9 0.00 0.00 0.00 76 655.3
20260506220022 49 351 0.0 0.9 0.00 0.00 0.00 76 655.3
20260506215007 49 354 0.9 1.7 0.00 0.00 0.13 75 655.3
20260506214101 49 353 1.7 1.7 0.00 0.00 0.13 75 655.4
20260506213054 49 345 0.9 1.7 0.00 0.00 0.13 75 655.5
20260506212047 49 341 0.9 0.9 0.00 0.00 0.13 76 655.5
20260506211040 49 349 0.0 1.7 0.00 0.00 0.13 76 655.5
20260506210033 49 1 0.9 1.7 0.00 0.00 0.13 76 655.5
20260506205025 49 17 0.0 1.7 0.00 0.00 0.13 76 655.5
20260506204011 49 13 0.9 1.7 0.00 0.00 0.13 78 655.5
20260506203005 50 16 0.0 1.7 0.00 0.00 0.13 78 655.6
20260506202058 50 9 0.0 0.9 0.00 0.00 0.13 78 655.6
20260506201052 50 9 0.0 0.9 0.00 0.00 0.13 78 655.7
20260506200045 50 8 0.0 1.7 0.00 0.00 0.13 77 655.7
20260506195038 50 5 0.9 2.6 0.00 0.00 0.13 77 655.7
20260506194030 50 5 2.6 2.6 0.00 0.00 0.13 76 655.7
20260506193020 50 15 2.6 2.6 0.00 0.00 0.13 76 655.8
20260506192006 50 26 0.9 6.1 0.00 0.00 0.13 75 655.9
20260506191059 50 24 3.5 7.0 0.00 0.00 0.13 73 656.1
20260506190052 51 10 1.7 6.1 0.00 0.00 0.13 72 656.2
20260506185045 51 26 3.5 6.1 0.00 0.00 0.13 70 656.3
20260506184037 51 23 3.5 3.5 0.00 0.00 0.13 69 656.5
20260506183030 51 5 3.5 6.1 0.00 0.00 0.13 69 656.7
20260506182012 52 22 3.5 6.1 0.00 0.00 0.13 66 657.0
20260506181004 52 34 3.5 6.1 0.00 0.00 0.13 66 657.1
20260506180058 52 30 3.5 5.2 0.00 0.00 0.13 65 657.2
20260506175051 53 19 1.7 7.8 0.00 0.00 0.13 65 657.4
20260506174044 53 29 3.5 5.2 0.00 0.00 0.13 65 657.6
20260506173036 54 16 2.6 8.7 0.00 0.00 0.13 64 658.1
20260506172029 55 347 4.3 9.6 0.00 0.00 0.13 62 658.5
20260506171018 54 5 5.2 8.7 0.00 0.00 0.13 59 658.4
20260506170008 54 3 2.6 8.7 0.00 0.00 0.13 59 658.5
20260506165100 54 23 1.7 6.1 0.00 0.00 0.13 59 658.3
20260506164053 55 0 3.5 11.3 0.00 0.00 0.13 59 658.5
20260506163046 55 30 3.5 7.8 0.00 0.00 0.13 60 658.6
20260506162039 55 15 4.3 7.8 0.00 0.00 0.13 60 658.6
20260506161032 55 10 1.7 7.8 0.00 0.00 0.13 61 1009.5
20260506160025 56 11 6.1 7.8 0.00 0.00 0.13 60 1009.6
20260506155011 56 2 2.6 7.0 0.00 0.00 0.13 62 1009.6
20260506154004 57 355 3.5 8.7 0.00 0.00 0.13 60 1009.5
20260506153058 57 353 4.3 8.7 0.00 0.00 0.13 59 1009.4
20260506152050 57 1 3.5 5.2 0.00 0.00 0.13 61 1009.4
20260506151044 57 8 2.6 7.8 0.00 0.00 0.13 59 1009.4
20260506150036 58 3 2.6 7.8 0.00 0.00 0.13 57 1009.3
20260506145029 57 13 1.7 6.1 0.00 0.00 0.13 59 1009.2
20260506144021 57 9 0.9 5.2 0.00 0.00 0.13 57 1009.3
20260506143009 58 5 3.5 8.7 0.00 0.00 0.13 56 1009.3
20260506142103 58 3 2.6 5.2 0.00 0.00 0.13 58 1009.3
20260506141054 58 342 2.6 8.7 0.00 0.00 0.13 57 1009.3